Погода в Новом

Украина / Запорожская область     47°20′43″N   35°47′41″E
темп.,
°C
ветер,
м/с
пор.,
м/с
влажн.,
%
обл.,
%
осадки,
мм/ч
давл.,
гПа
погр.,
м
12 мая, ср
ср1200:00+7ссз2583100 0.1 1014295
03:00+7с2489100 0.1 1013289
06:00+7ююв1289100 0.3 1013148
09:00+9ю3377100 0.4 1013646
12:00+13ююв445726 0.1 10131383
15:00+13ю565689 0.2 10131473
18:00+13ююз366063 0.1 1012738
21:00+8ююв34805 0.1 101351
13 мая, чт
чт1300:00+8юв22918 0.0 101316
03:00+8в119211 0.0 101310
06:00+8юв12955 0.0 101327
09:00+15ююв23685 0.0 1013692
12:00+20ю344975 0.0 10121221
15:00+22ююв4543100 0.0 10121444
18:00+20юв455317 0.0 1012711
21:00+15вюв467762 0.0 101288
14 мая, пт
пт1400:00+14вюв4108756 0.0 1010151
03:00+14юв38925 0.0 1010126
06:00+14ююв3596100 0.0 1010103
09:00+19ююв2377100 0.0 1010308
12:00+25ю3445100 0.0 10101110
15:00+26ююз4537100 0.0 10101385
18:00+25ю3547100 0.0 1009260
21:00+17ю33670 0.0 101039
15 мая, сб
сб1500:00+15зюз227472 0.0 101117
03:00+15зюз3476100 0.0 101279
06:00+13зсз23815 0.0 101257
09:00+19з3359100 0.0 1012516
12:00+23зюз34465 0.0 10131420
15:00+25юз35409 0.0 10122233
18:00+25з234133 0.0 10122032
21:00+18юз117199 0.0 101211
16 мая, вс
вс1600:00+16всв117283 0.0 101211
03:00+16св3375100 0.0 101139
06:00+15св4976100 0.0 1010156
09:00+22в5758100 0.0 1010527
12:00+27в5642100 0.0 10081531
15:00+28в574646 0.0 10061977
18:00+28в575228 0.0 10041289
21:00+20всв36779 0.4 100580